Content
SEND FEEDBACK

Daily
Averages
Monthly
Summary
United States of America

ST. LOUIS - SAINT LOUIS UNIVERSITY, MISSOURI


Home > North America > United States > Missouri
Elevation: 580 feet     Latitude: 38 38N     Longitude: 090 14W

WEATHER
 
SELECT A DAY
Number of Records: 185,957;   Date Range: 1/1/95 - 7/20/14
 
SHARE

PRINT THIS DATA

[ ← Previous Day ]
WEATHER ALMANAC - APRIL 1, 2013
[ Next Day → ]
[ °C ]   °F
Weather ElementAverageHighLow
Temperature43 °F48 °F (1:53 pm)37.9 °F (8:53 am)
Dewpoint22.9 °F32 °F (1:53 am)14 °F (5:53 pm)
Humidity46.2 %60 % (4:53 am)26 % (5:53 pm)
Barometer30.17 in30.25 in (11:53 pm)29.99 in (1:53 am)
Wind Speed11.8 mph19.6 mph (2:53 am)
Wind Gust21.9 mph (5:53 pm)
Weather ElementAverage
Visibility10 mi
Wind DirectionNNW (331.7 °)

Weather ElementTotal
Precipitation---
Heating Degree Days22.1 (Base 65)
Averaged from 23 records on April 1, 2013
WEATHER CONDITIONS BREAKOUT
WIND DIRECTION BREAKOUT
WEATHER BY HOUR - APRIL 1, 2013
[ °C ]   °F
Local TimeTemperatureDewpointHumidityBarometerVisibilityWind DirectionWind SpeedGust SpeedPrecipitationEventsConditions
1:53 AM46.0 °F32.0 °F58 %29.99 in10.0 miNorth (360°)11.5 mphClear
2:53 AM44.1 °F28.9 °F55 %30.02 in10.0 miNorth (350°)19.6 mphOvercast
3:53 AM43.0 °F28.0 °F56 %30.04 in10.0 miNorth (360°)15.0 mphOvercast
4:53 AM42.1 °F28.9 °F60 %30.07 in10.0 miNorth (360°)9.2 mphMostly Cloudy
5:53 AM39.9 °F27.0 °F60 %30.10 in10.0 miNorth (350°)10.4 mphOvercast
6:53 AM39.0 °F23.0 °F53 %30.13 in10.0 miNorth (10°)16.1 mphOvercast
7:53 AM39.0 °F23.0 °F53 %30.16 in10.0 miNorth (350°)15.0 mphOvercast
8:53 AM37.9 °F25.0 °F60 %30.19 in10.0 miNorth (360°)12.7 mphOvercast
9:53 AM39.0 °F23.0 °F53 %30.21 in10.0 miNorth (350°)12.7 mphMostly Cloudy
10:53 AM42.1 °F24.1 °F49 %30.21 in10.0 miNorth (360°)9.2 mph18.4 mphScattered Clouds
11:53 AM45.0 °F25.0 °F46 %30.21 in10.0 miNNW (340°)15.0 mph19.6 mphClear
12:53 PM45.0 °F23.0 °F42 %30.20 in10.0 miNNW (340°)10.4 mph18.4 mphClear
1:53 PM48.0 °F23.0 °F37 %30.20 in10.0 miNorth (350°)13.8 mph17.3 mphClear
2:53 PM48.0 °F24.1 °F39 %30.19 in10.0 miNNW (340°)12.7 mph18.4 mphClear
3:53 PM48.0 °F19.9 °F33 %30.19 in10.0 miWNW (300°)9.2 mph19.6 mphClear
4:53 PM48.0 °F19.0 °F32 %30.20 in10.0 miNNW (330°)15.0 mphClear
5:53 PM48.0 °F14.0 °F26 %30.19 in10.0 miNNW (340°)15.0 mph21.9 mphClear
6:53 PM46.0 °F19.9 °F35 %30.19 in10.0 miNNW (340°)10.4 mphClear
7:53 PM42.1 °F18.0 °F38 %30.20 in10.0 miNNW (340°)6.9 mphClear
8:53 PM42.1 °F17.1 °F37 %30.21 in10.0 miNorth (350°)8.1 mphClear
9:53 PM39.9 °F19.0 °F43 %30.22 in10.0 miNorth (350°)6.9 mphClear
10:53 PM39.0 °F21.0 °F49 %30.23 in10.0 miNorth (350°)8.1 mphClear
11:53 PM37.9 °F19.9 °F48 %30.25 in10.0 miNorth (350°)8.1 mphClear
Hourly data recorded from KCPS, located miles away from St. Louis - Saint Louis University, Missouri







STORIES FROM OUR PARTNERS